星链-36258(STARLINK-36258)

导读

STARLINK-36258是美国于2025年12月15日发射的星链卫星,归属SpaceX星链项目。星链项目旨在构建全球卫星互联网星座,为全球偏远地区、海洋空域等提供高速低延迟互联服务,该卫星入轨后将融入现有星链网络,进一步补充星座规模,提升全球网络覆盖能力与服务稳定性。

基本信息
目录编号:
67104
目录名称:
STARLINK-36258
国际标识:
2025-299C
轨道中心:
EARTH
卫星名称:
星链-36258
卫星全名:
星链-36258(STARLINK-36258)
卫星状态:
在轨 (已飞行180 天)
发射日期:
2025-12-15 UTC
国别 :
美国 (US)
星等 :
--
轨道信息
数据来源 国际轨道数据
星历时间: 2026-06-13T03:49:15+0800
10小时前
查看轨道信息
半长轴: 6861.001km
偏心率: 0.0002759
轨道倾角: 43.004°
近地点辐角 111.876°
升交点赤经 351.923°
平近点角 248.238°
近地点: 480.971km
远地点: 484.757km
周期: 94.263分钟
每日圈数: 15.27642
详细信息
固有亮度:
5
最大亮度:
2.5
卫星平台:
Starlink V1.0
覆盖范围:
全球
运营商:
太空探索技术公司
运营商所在国:
美国
制造商(研发单位):
太空探索技术公司
制造商所在国:
美国
使用方式:
暂无
卫星简介
Starlink 计划是 SpaceX 推出的全球卫星互联网项目,通过发射低轨道卫星,为全球尤其是偏远地区提供高速、低延迟的互联网服务。自 2019 年起,Starlink 已部署数千颗卫星,旨在缩小全球数字鸿沟,推动互联网普及。该项目还为军事、航空等行业提供通信支持,带来广泛经济效益。
2D轨道图
3D轨道图
轨道高度分析图
轨道倾角分析图
轨道综合分析图
查看轨道综合分析图